Date String (YYYY-MM-DD hh:mm:ss) UTC,Instrument flags,Ambient pressure (hPa),Sample flow (lpm),Bypass flow (lpm),Sample temperature (°C),Ambient temperature (°C),ASC tube jacket temperature (°C),LED temperature (°C),Box temperature (°C),Sample RH (%),Span deviation,Mass concentration (μg/m³),Mass concentration (μg/m³),Mass concentration (μg/m³)
DateTimeUTC,F1_M11,P_M11,Q1_M11,Q2_M11,T1_M11,T2_M11,T3_M11,T4_M11,T5_M11,U1_M11,ZSPAN_M11,X2_M11,X0_M11,X1_M11
2022-04-30 00:00:00,,0817.2,4.99,0.00,25.9,24.7,00.0,34.9,27.7,08.9,0000.0,0003.70,0013.46,0001.58
2022-04-30 00:01:00,,0817.1,5.01,0.00,25.9,24.6,00.0,34.9,27.7,09.1,0000.0,0003.76,0013.95,0001.58
2022-04-30 00:02:00,,0817.3,4.99,0.00,25.9,24.6,00.0,34.9,27.7,09.3,0000.0,0003.79,0014.67,0001.55
2022-04-30 00:03:00,,0817.4,5.00,0.00,25.9,24.6,00.0,34.9,27.6,09.4,0000.0,0003.83,0015.03,0001.54
2022-04-30 00:04:00,,0817.2,4.99,0.00,25.9,24.6,00.0,34.9,27.6,09.5,0000.0,0003.74,0014.65,0001.51
2022-04-30 00:05:00,,0816.9,5.00,0.00,25.9,24.6,00.0,34.9,27.6,09.5,0000.0,0003.69,0015.12,0001.49
2022-04-30 00:06:00,,0817.1,5.00,0.00,25.8,24.5,00.0,34.8,27.6,09.3,0000.0,0003.77,0016.99,0001.50
2022-04-30 00:07:00,,0817.3,5.01,0.00,25.8,24.5,00.0,34.8,27.6,09.4,0000.0,0003.90,0019.95,0001.51
2022-04-30 00:08:00,,0817.2,5.00,0.00,25.8,24.5,00.0,34.8,27.6,09.4,0000.0,0004.05,0021.87,0001.53
2022-04-30 00:09:00,,0817.0,5.00,0.00,25.8,24.5,00.0,34.8,27.5,09.4,0000.0,0004.11,0022.68,0001.55
2022-04-30 00:10:00,,0817.0,5.00,0.00,25.8,24.5,00.0,34.8,27.5,09.3,0000.0,0004.08,0021.92,0001.54
2022-04-30 00:11:00,,0816.7,5.00,0.00,25.7,24.5,00.0,34.8,27.5,09.3,0000.0,0004.05,0022.59,0001.53
2022-04-30 00:12:00,,0816.8,4.98,0.00,25.7,24.4,00.0,34.7,27.5,09.2,0000.0,0004.20,0024.68,0001.54
2022-04-30 00:13:00,,0816.8,5.01,0.00,25.7,24.4,00.0,34.7,27.4,09.1,0000.0,0004.47,0027.37,0001.59
2022-04-30 00:14:00,,0817.0,4.99,0.00,25.7,24.4,00.0,34.7,27.4,09.1,0000.0,0004.79,0029.14,0001.64
2022-04-30 00:15:00,,0816.9,4.99,0.00,25.6,24.3,00.0,34.7,27.4,09.0,0000.0,0004.94,0029.71,0001.67
2022-04-30 00:16:00,,0816.9,5.01,0.00,25.6,24.3,00.0,34.7,27.3,09.0,0000.0,0005.12,0030.52,0001.72
2022-04-30 00:17:00,,0816.9,5.00,0.00,25.6,24.3,00.0,34.6,27.3,09.1,0000.0,0005.20,0030.37,0001.73
2022-04-30 00:18:00,,0816.8,4.99,0.00,25.6,24.2,00.0,34.6,27.3,09.2,0000.0,0005.17,0029.00,0001.72
2022-04-30 00:19:00,,0817.0,5.00,0.00,25.5,24.2,00.0,34.6,27.3,09.2,0000.0,0005.08,0027.37,0001.72
2022-04-30 00:20:00,,0816.8,5.01,0.00,25.5,24.2,00.0,34.6,27.2,09.2,0000.0,0005.10,0026.66,0001.72
2022-04-30 00:21:00,,0816.8,4.99,0.00,25.5,24.2,00.0,34.6,27.2,09.1,0000.0,0005.17,0027.13,0001.73
2022-04-30 00:22:00,,0816.7,5.00,0.00,25.5,24.2,00.0,34.5,27.2,09.2,0000.0,0005.37,0027.70,0001.77
2022-04-30 00:23:00,,0816.7,5.00,0.00,25.5,24.1,00.0,34.5,27.2,09.3,0000.0,0005.52,0028.12,0001.82
2022-04-30 00:24:00,,0816.8,4.99,0.00,25.4,24.1,00.0,34.5,27.2,09.4,0000.0,0005.42,0027.04,0001.82
2022-04-30 00:25:00,,0816.8,4.99,0.00,25.4,24.1,00.0,34.5,27.1,09.4,0000.0,0005.28,0027.83,0001.83
2022-04-30 00:26:00,,0816.6,4.99,0.00,25.4,24.1,00.0,34.5,27.1,09.4,0000.0,0005.39,0028.80,0001.84
2022-04-30 00:27:00,,0816.7,4.99,0.00,25.4,24.0,00.0,34.4,27.1,09.5,0000.0,0005.65,0032.29,0001.90
2022-04-30 00:28:00,,0816.7,5.00,0.00,25.4,24.0,00.0,34.4,27.1,09.6,0000.0,0005.78,0034.91,0001.94
2022-04-30 00:29:00,,0816.6,4.99,0.00,25.3,24.0,00.0,34.4,27.0,09.4,0000.0,0005.80,0034.21,0001.96
2022-04-30 00:30:00,,0816.7,5.00,0.00,25.3,24.0,00.0,34.4,27.0,09.1,0000.0,0005.86,0034.52,0002.00
2022-04-30 00:31:00,,0816.7,5.00,0.00,25.3,24.0,00.0,34.4,27.0,09.1,0000.0,0005.90,0035.51,0002.02
2022-04-30 00:32:00,,0816.7,4.99,0.00,25.3,23.9,00.0,34.3,27.0,09.2,0000.0,0005.78,0035.03,0002.03
2022-04-30 00:33:00,,0816.8,5.01,0.00,25.3,23.9,00.0,34.3,27.0,09.2,0000.0,0005.48,0032.57,0002.00
2022-04-30 00:34:00,,0817.0,5.00,0.00,25.2,23.9,00.0,34.3,27.0,09.3,0000.0,0005.18,0029.68,0001.94
2022-04-30 00:35:00,,0817.1,5.02,0.00,25.2,23.9,00.0,34.3,27.0,09.4,0000.0,0005.02,0028.58,0001.90
2022-04-30 00:36:00,,0817.2,5.00,0.00,25.2,24.0,00.0,34.3,27.0,09.4,0000.0,0004.81,0025.63,0001.86
2022-04-30 00:37:00,,0817.1,4.99,0.00,25.2,24.0,00.0,34.2,27.0,09.3,0000.0,0004.48,0023.01,0001.82
2022-04-30 00:38:00,,0817.2,4.99,0.00,25.2,24.0,00.0,34.2,27.0,09.0,0000.0,0004.02,0018.14,0001.74
2022-04-30 00:39:00,,0817.0,5.01,0.00,25.2,24.0,00.0,34.2,27.0,09.0,0000.0,0003.66,0013.77,0001.68
2022-04-30 00:40:00,,0817.0,4.99,0.00,25.2,23.9,00.0,34.2,27.0,09.0,0000.0,0003.57,0013.13,0001.64
2022-04-30 00:41:00,,0817.2,5.01,0.00,25.2,23.9,00.0,34.2,26.9,08.9,0000.0,0003.49,0013.97,0001.61
2022-04-30 00:42:00,,0817.2,5.00,0.00,25.2,23.9,00.0,34.2,26.9,09.0,0000.0,0003.38,0012.86,0001.58
2022-04-30 00:43:00,,0817.4,5.00,0.00,25.2,23.9,00.0,34.2,26.9,09.1,0000.0,0003.31,0013.21,0001.55
2022-04-30 00:44:00,,0817.5,5.01,0.00,25.2,23.9,00.0,34.1,26.9,09.3,0000.0,0003.24,0012.94,0001.54
2022-04-30 00:45:00,,0817.7,4.99,0.00,25.2,24.0,00.0,34.1,26.9,09.5,0000.0,0003.17,0012.46,0001.53
2022-04-30 00:46:00,,0817.7,5.02,0.00,25.1,24.0,00.0,34.1,26.9,10.0,0000.0,0003.10,0011.15,0001.53
2022-04-30 00:47:00,,0817.5,4.98,0.00,25.1,24.0,00.0,34.1,26.9,10.2,0000.0,0003.02,0010.94,0001.53
2022-04-30 00:48:00,,0817.5,5.00,0.00,25.1,24.0,00.0,34.1,26.9,10.4,0000.0,0002.93,0010.63,0001.50
2022-04-30 00:49:00,,0817.5,5.00,0.00,25.1,24.0,00.0,34.1,26.9,10.7,0000.0,0003.04,0010.15,0001.51
2022-04-30 00:50:00,,0817.5,5.00,0.00,25.1,24.0,00.0,34.1,26.9,10.8,0000.0,0003.05,0010.74,0001.52
2022-04-30 00:51:00,,0817.6,5.01,0.00,25.1,24.0,00.0,34.1,26.9,10.8,0000.0,0002.90,0011.28,0001.53
2022-04-30 00:52:00,,0817.6,4.99,0.00,25.1,24.0,00.0,34.1,26.9,10.8,0000.0,0002.77,0009.71,0001.52
2022-04-30 00:53:00,,0817.4,5.00,0.00,25.1,24.0,00.0,34.1,26.9,10.9,0000.0,0002.64,0009.34,0001.49
2022-04-30 00:54:00,,0817.4,5.00,0.00,25.1,23.9,00.0,34.1,26.9,11.0,0000.0,0002.60,0008.42,0001.48
2022-04-30 00:55:00,,0817.5,5.01,0.00,25.1,23.9,00.0,34.0,26.9,10.9,0000.0,0002.57,0008.58,0001.48
2022-04-30 00:56:00,,0817.6,4.99,0.00,25.1,23.9,00.0,34.0,26.8,10.5,0000.0,0002.61,0009.15,0001.48
2022-04-30 00:57:00,,0817.8,5.00,0.00,25.0,23.8,00.0,34.0,26.8,10.6,0000.0,0002.70,0009.68,0001.46
2022-04-30 00:58:00,,0817.8,5.01,0.00,25.0,23.9,00.0,34.0,26.8,10.5,0000.0,0002.83,0010.25,0001.46
2022-04-30 00:59:00,,0817.6,5.00,0.00,25.0,23.9,00.0,34.0,26.8,10.3,0000.0,0002.96,0010.39,0001.47
